Location: Charny
(48.9710°N, 2.7612°E)
Time: 11:15:11
(UTC+00:00)

Daily predictions for brighter satellites

Satellite Brightness Start Highest point End
(mag) Time Altitude Azimuth Time Altitude Azimuth Time Altitude Azimuth
USA 267 3.6 19:42:31 10° ENE 19:48:40 42° SE 19:54:47 10° SSW
Cosmos 1821 Rocket 4.4 19:46:53 10° SSE 19:52:38 44° E 19:58:29 10° NNE
Shenzhou-11 Module 3.2 19:51:50 10° SW 19:53:36 18° S 19:55:21 10° SE
COSMOS 2406 3.5 19:48:47 10° S 19:54:15 47° ESE 19:59:44 10° NE
Cosmos 1743 Rocket 3.7 19:51:08 10° S 19:55:35 88° WNW 20:00:06 10° N
CZ-2C R/B 3.9 19:51:33 10° NNE 19:56:07 53° E 20:00:33 10° S
SL-16 R/B 4.2 19:52:55 10° N 19:56:25 16° NE 19:59:53 10° ENE
Cosmos 2366 rocket 4.2 19:50:13 10° SSW 19:56:28 80° W 20:02:42 10° N
Intercosmos 25 3.8 19:52:53 10° N 19:57:33 48° ENE 20:00:54 10° SSE
MOS 1 Rocket 4.5 19:52:29 10° N 19:57:50 57° WNW 20:03:06 10° SSW
Lacrosse 5 3.2 19:54:51 10° WNW 19:59:31 35° N 20:04:10 10° ENE
ERS-1 Rocket 4.5 19:56:50 10° ESE 20:00:34 21° ENE 20:04:18 10° N
Cosmos 2369 4.1 19:56:43 10° NNW 20:02:23 55° NE 20:07:59 10° SE
Cosmos 1862 3.4 19:59:50 10° S 20:03:49 62° E 20:07:51 10° NNE
Sich 1 3.5 20:00:37 10° SSE 20:04:47 42° E 20:09:00 10° NNE
SJ-6B 4.2 20:02:23 10° S 20:06:15 41° W 20:10:04 10° NNW
Meteor 2-6 Rocket 4.3 20:01:07 10° NNW 20:06:37 83° W 20:12:15 10° S
Cosmos 1818 3.6 20:01:30 10° NW 20:07:00 80° NE 20:12:24 10° SE
BREEZE-M DEB (TANK) 1.9 20:03:49 10° W 20:07:37 87° S 20:09:36 10° E
IRIDIUM 106 4.3 20:03:33 10° S 20:08:44 70° E 20:13:56 10° N
Cosmos 2082 Rocket 3.1 20:04:53 10° SSE 20:09:34 27° ESE 20:14:16 10° NE
Cosmos 2278 4.3 20:06:06 10° NNW 20:11:36 46° NE 20:16:44 12° SE
Cosmos 2123 Rocket 4.5 20:06:15 10° N 20:12:11 45° ENE 20:18:06 10° SE
Cosmos 1500 Rocket 4.2 20:10:46 10° SSW 20:15:00 58° WNW 20:19:18 10° N
Spot 2 Rocket 4.0 20:11:25 10° SE 20:16:17 46° ENE 20:21:10 10° N
Cosmos 2322 Rocket 4.1 20:15:10 10° N 20:19:03 18° NE 20:22:56 10° E
Resurs 1-3 4.1 20:15:37 10° S 20:19:56 59° WSW 20:24:18 10° NNW
Meteor 1-4 Rocket 3.2 20:16:42 10° N 20:19:58 35° ENE 20:22:26 15° SE
Cosmos 1190 Rocket 4.4 20:17:25 10° S 20:22:19 41° ESE 20:27:17 10° NE
Cosmos 1184 Rocket 4.4 20:21:02 15° ESE 20:22:24 18° E 20:24:46 10° NE
CZ-2C R/B 3.2 20:18:44 10° N 20:23:50 59° WNW 20:28:55 10° SSW
Terra 3.4 20:21:08 11° ESE 20:24:27 21° ENE 20:27:59 10° NNE
USA 234 3.4 20:18:46 11° ESE 20:25:11 78° NNE 20:31:45 10° NW
Cosmos 407 Rocket 3.7 20:20:03 10° S 20:25:13 53° ESE 20:30:21 10° NNE
Cosmos 1666 Rocket 3.8 20:22:15 10° SSE 20:26:22 46° E 20:30:32 10° NNE
Cosmos 1238 Rocket 4.1 20:28:02 13° E 20:28:23 13° E 20:29:56 10° ENE
Meteor 1-27 Rocket 3.8 20:24:47 10° N 20:30:44 82° E 20:36:41 10° SSE
MetOp-B 4.1 20:25:52 10° SSE 20:31:14 79° ENE 20:36:37 10° NNW
Cosmos 2360 Rocket 4.4 20:29:46 10° N 20:32:57 15° NNE 20:36:07 10° ENE
BREEZE-M DEB (TANK) 4.0 20:32:56 10° W 20:36:34 18° WSW 20:38:46 10° S
ERBS 3.8 20:33:44 10° W 20:36:53 38° NNW 20:40:00 10° NE
USA 238 DEB 4.4 20:32:28 10° S 20:38:00 29° ESE 20:43:43 10° ENE
Cosmos 1805 Rocket 3.9 20:33:42 10° SSW 20:38:06 69° W 20:42:34 10° N
USA 238 4.4 20:32:36 10° S 20:38:07 29° ESE 20:43:48 10° ENE
SPOT 5 3.6 20:35:55 17° ESE 20:38:37 32° ENE 20:42:29 10° N
Cosmos 1980 Rocket 2.3 20:37:12 10° NNW 20:42:54 66° ENE 20:47:05 18° SE
SPOT 1/Viking Rocket 3.7 20:39:53 15° SSE 20:44:07 65° ENE 20:49:19 10° N
SL-4 R/B 2.2 20:43:49 10° SW 20:47:32 40° SSE 20:51:00 10° ENE
BREEZE-M DEB (TANK) 2.4 20:45:43 10° WSW 20:48:23 86° SSE 20:55:14 10° E
Genesis I 3.3 20:44:35 10° NW 20:48:27 63° NE 20:50:44 23° ESE
Cosmos 405 Rocket 3.9 20:49:21 21° ESE 20:50:09 23° E 20:53:06 10° NE
Cosmos 1140 Rocket 3.5 20:45:39 10° S 20:50:50 67° ESE 20:56:05 10° NNE
ATLAS 5 CENTAUR R/B 3.5 20:46:05 10° NW 20:51:21 37° WSW 20:57:17 10° S
Cosmos 389 Rocket 4.4 20:51:20 10° NW 20:54:14 26° W 20:57:10 10° SSW
Cosmos 1023 Rocket 4.4 20:50:06 10° SSW 20:55:21 75° ESE 21:00:39 10° NNE
USA 32 4.1 20:53:02 16° SSE 20:57:09 57° E 21:02:17 10° NNE
Cosmos 1812 4.3 20:53:51 10° NNW 20:57:19 32° W 21:00:46 10° SSW
Cosmos 1697 Rocket 3.1 20:53:03 10° NW 20:58:34 57° WSW 21:03:04 15° S
Cosmos 1633 Rocket 3.0 20:55:12 10° S 20:59:37 85° E 21:04:04 10° N
Cosmos 1833 Rocket 2.7 20:54:21 10° SSW 20:59:58 83° WNW 21:05:38 10° NNE
Cosmos 1867 3.7 21:01:03 10° SSW 21:06:17 52° ESE 21:11:36 10° NE
CENTAUR R/B 3.4 21:04:45 22° SE 21:06:39 26° ESE 21:12:05 10° ENE
Okean 1-7 4.0 21:03:01 10° N 21:06:55 31° ENE 21:08:30 24° ESE
Resurs 01 Rocket 3.4 21:06:17 10° SSW 21:10:07 29° W 21:14:00 10° NW
Landsat 7 4.2 21:08:59 16° S 21:12:42 60° W 21:17:26 10° NNW
FALCON 9 DEB 3.3 21:09:52 10° SW 21:13:14 47° SSE 21:15:22 20° E
deb Kosmos-1763 3.9 21:14:16 15° SSW 21:17:10 87° ESE 21:20:50 10° NNE
Cosmos 1515 4.4 21:13:48 10° N 21:17:24 37° ENE 21:18:22 32° ESE
Cosmos 676 Rocket 4.0 21:14:25 10° SSW 21:19:44 75° ESE 21:25:05 10° NNE
Cosmos 192 4.3 21:15:24 10° NNW 21:20:20 79° WSW 21:22:57 28° SSE
IGS 5A 4.4 21:17:34 16° SSW 21:20:33 44° W 21:24:32 10° NNW
ATLAS 5 CENTAUR R/B 3.2 21:18:19 10° NNW 21:20:33 27° NE 21:23:25 15° E
Meteor 1-25 Rocket 4.1 21:17:53 18° S 21:22:05 73° E 21:27:42 10° NNE
Cosmos 1470 Rocket 3.5 21:19:31 22° S 21:22:20 82° E 21:26:46 10° NNE
Cosmos 1934 Rocket 4.3 21:18:05 10° SSW 21:24:25 69° WNW 21:30:48 10° N
Aureole 1 Rocket 4.4 21:18:45 10° SSW 21:25:36 89° ESE 21:33:58 10° NNE
GP-B 3.7 21:22:54 10° N 21:27:16 57° W 21:30:41 16° SSW
USA 267 3.4 21:25:27 10° NE 21:32:01 77° NNW 21:38:33 10° WSW
NOSS 3-2 (A) 3.4 21:26:42 10° SSW 21:32:17 60° SE 21:38:42 10° NE
Cosmos 921 Rocket 2.9 21:29:04 10° NNW 21:33:19 78° WSW 21:34:51 38° S
Cosmos 1862 Rocket 4.4 21:31:12 10° NNW 21:35:30 47° W 21:38:10 21° SSW
NOSS 3-2 (C) 3.7 21:35:51 28° SSE 21:38:19 43° ESE 21:44:21 10° NE
ERS-1 Rocket 3.2 21:36:09 26° S 21:38:55 64° WSW 21:43:56 10° NNW
Cosmos 841 Rocket 4.3 21:34:56 10° NNW 21:39:52 40° ENE 21:42:00 28° ESE
SAR-Lupe-2 3.6 21:37:05 10° NNE 21:40:41 80° WNW 21:41:56 38° SSW
Cosmos 540 Rocket 4.3 21:36:26 10° NNW 21:41:19 40° ENE 21:43:22 28° ESE
SL-16 R/B 2.4 21:36:08 10° NNW 21:41:46 60° ENE 21:44:17 32° SE
Lacrosse 5 2.0 21:38:02 10° NW 21:43:08 71° NNE 21:45:31 31° ESE
Cosmos 468 Rocket 4.0 21:38:15 10° NNW 21:43:37 84° ENE 21:45:45 37° SSE
Cosmos 1741 Rocket 4.2 21:48:23 38° SSE 21:49:57 52° ESE 21:55:05 10° NNE
Cosmos 1570 Rocket 4.5 21:46:02 10° NNW 21:51:13 51° ENE 21:53:10 34° ESE
Cosmos 2219 Rocket 4.2 21:48:16 10° N 21:52:18 19° NE 21:56:19 10° E
Cosmos 1954 Rocket 4.4 21:47:51 10° SW 21:53:08 63° WNW 21:58:27 10° NNE
Cosmos 2082 Rocket 2.8 21:47:42 10° SW 21:53:18 57° WNW 21:58:55 10° NNE
Terra 2.1 22:00:02 36° SSW 22:01:48 60° W 22:06:32 10° NNW
Aureole 2 4.3 22:03:02 80° SSW 22:03:12 90° ESE 22:07:09 10° NNE
Cosmos 1933 Rocket 4.1 22:01:23 26° SW 22:03:38 55° WNW 22:08:00 10° N
Cosmos 2322 Rocket 2.3 21:58:27 10° NNW 22:04:10 71° ENE 22:06:13 41° SE
Okean 1 4.2 22:02:07 10° NNW 22:05:58 43° W 22:07:07 34° SW
Cosmos 1238 Rocket 4.0 22:06:53 23° WSW 22:07:44 26° WNW 22:10:19 10° NNW
Cosmos 2100 Rocket 3.9 22:05:35 37° S 22:08:08 73° E 22:14:16 10° NNE
USA 234 3.9 22:06:06 30° S 22:08:32 41° SW 22:14:40 10° WNW
Meteor 1-11 Rocket 4.3 22:09:09 37° ESE 22:10:13 40° E 22:15:32 10° NNE
Cosmos 1437 Rocket 3.0 22:06:37 10° NNW 22:10:22 55° W 22:10:50 51° SW
Cosmos 1242 Rocket 4.3 22:09:22 10° NNE 22:12:07 22° ENE 22:12:07 22° ENE
Cosmos 1869 Rocket 3.4 22:13:01 61° SSE 22:13:43 80° E 22:18:12 10° NNE
SPOT 5 4.0 22:15:08 23° SW 22:16:44 30° W 22:20:33 10° NW
Cosmos 2360 Rocket 2.6 22:12:45 10° NNW 22:18:21 53° NE 22:20:20 36° ESE
COSMOS 2428 4.5 22:14:19 10° NNW 22:18:58 25° NE 22:22:37 14° E
MTI 4.5 22:16:07 10° NNE 22:18:29 49° NNE 22:18:29 49° NNE
JB-3 4.5 22:16:01 10° N 22:20:00 70° WNW 22:20:44 55° SW
ATLAS 3B R/B 3.2 22:21:12 34° ESE 22:21:25 34° ESE 22:27:16 10° NE
Geosat 3.9 22:20:48 53° SSE 22:22:03 89° ENE 22:27:08 10° NNW
Iridium 4 Rocket 2.9 22:21:45 66° S 22:22:21 89° WSW 22:26:37 10° N
Cosmos 1703 Rocket 4.5 22:19:03 10° NNW 22:23:09 41° W 22:24:15 34° SW
Cosmos 2173 Rocket 3.9 22:21:11 39° S 22:23:41 87° E 22:29:51 10° N
Cosmos 1500 3.1 22:25:10 79° WNW 22:25:10 79° WNW 22:28:53 10° N
Cosmos 405 Rocket 4.4 22:24:29 21° WSW 22:26:01 29° WNW 22:29:19 10° N
CRYOSAT 2 4.5 22:21:21 10° NNE 22:26:11 57° E 22:26:46 53° ESE
Cosmos 1980 Rocket 3.9 22:22:02 10° NW 22:26:23 23° WSW 22:28:51 17° SW
SL-4 R/B 1.9 22:23:15 10° W 22:27:01 68° NNW 22:27:13 66° N
ALOS 2 3.5 22:27:44 34° E 22:28:17 35° ENE 22:32:16 10° N
USA 238 DEB 3.8 22:21:43 10° SW 22:28:22 73° NW 22:35:21 10° NE
USA 238 3.8 22:21:49 10° SW 22:28:28 74° NW 22:35:28 10° NE
Cosmos 1725 Rocket 4.2 22:27:20 43° SE 22:29:02 57° E 22:35:13 10° NNE
Cosmos 1763 Rocket 4.1 22:24:38 10° NNW 22:29:45 49° WSW 22:31:09 39° SSW
Cosmos 1674 Rocket 4.3 22:28:59 10° N 22:33:03 38° ENE 22:33:13 38° E
SL-08 R/B 4.5 22:32:19 47° SSE 22:33:52 62° E 22:39:53 10° NNE
Cosmos 1536 3.5 22:34:39 43° ENE 22:34:39 43° ENE 22:37:56 10° NNE
Cosmos 1666 3.2 22:37:32 50° NE 22:37:32 50° NE 22:40:33 10° NNE
Cosmos 2333 Rocket 3.4 22:33:23 10° NNW 22:38:43 36° NE 22:41:19 24° E
Cosmos 1271 Rocket 4.3 22:37:51 10° NNE 22:40:47 25° ENE 22:40:47 25° ENE
Cosmos 2016 Rocket 3.9 22:39:51 46° S 22:41:54 83° E 22:48:19 10° N
Meteor 1-13 Rocket 4.1 22:36:33 10° NNW 22:42:07 81° W 22:43:23 55° S
Cosmos 2237 Rocket 4.5 22:38:36 10° N 22:42:23 18° NE 22:46:08 10° ENE
Meteor 1-5 Rocket 4.3 22:40:38 42° SSW 22:42:46 81° WNW 22:48:45 10° N
Cosmos 2061 Rocket 3.9 22:41:23 47° S 22:43:18 84° E 22:49:32 10° N
Lacrosse 4 Rocket 3.6 22:45:23 16° ENE 22:45:23 16° ENE 22:46:40 10° ENE
Okean 1-7 4.5 22:40:42 10° NNW 22:44:25 28° W 22:45:21 26° WSW
MOS 1-B Rocket 3.7 22:39:18 10° NNE 22:45:04 90° E 22:46:44 48° SSW
Cosmos 1459 Rocket 4.2 22:42:36 35° SSW 22:45:23 68° WNW 22:51:45 10° N
Cosmos 2221 Rocket 3.5 22:41:44 10° NNW 22:46:12 77° W 22:46:29 73° SW
Okean 3 3.8 22:46:07 10° NNW 22:50:20 56° W 22:50:31 55° WSW
Cosmos 1733 Rocket 3.1 22:50:59 63° E 22:50:59 63° E 22:55:09 10° NNE
Cosmos 1066 Rocket 4.2 22:46:52 10° N 22:52:38 75° ENE 22:53:46 57° SE
SL-27 R/B 3.5 22:53:08 41° NW 22:53:08 41° NW 22:55:53 10° N
Meteor 1-23 Rocket 4.3 22:48:35 10° N 22:54:27 75° ENE 22:55:43 55° SE
Cosmos 1864 Rocket 4.4 22:53:22 50° S 22:55:08 87° E 23:01:25 10° N
Thor Agena Rocket 3.4 22:51:11 10° NNE 22:56:17 83° ESE 22:56:59 67° S
CENTAUR R/B 2.7 22:51:50 19° SW 22:56:30 76° NW 23:03:48 10° NE
Cosmos 967 Rocket 4.4 22:53:16 10° NW 22:59:38 71° WSW 23:01:03 54° S
Cosmos 1802 Rocket 4.3 22:58:41 37° SW 23:01:17 64° WNW 23:07:38 10° N
Cosmos 44 3.5 22:56:35 10° NW 23:01:25 58° WSW 23:01:33 58° SW
Spot 4 4.1 23:06:33 54° WSW 23:06:57 56° W 23:11:42 10° NNW
Cosmos 1378 3.8 23:09:30 10° N 23:12:29 51° NNE 23:12:29 51° NNE
USA 267 4.2 23:08:26 10° ENE 23:14:38 47° N 23:20:49 10° W
Cosmos 2233 Rocket 3.9 23:14:31 55° S 23:16:00 81° E 23:22:21 10° N
Cosmos 1908 Rocket 4.2 23:18:33 46° ENE 23:18:33 46° ENE 23:22:17 10° NNE
Cosmos 841 Rocket 4.5 23:17:01 10° NW 23:21:39 33° WSW 23:22:05 33° WSW
Cosmos 540 Rocket 4.5 23:18:13 10° NW 23:22:49 33° WSW 23:23:10 33° WSW
SL-16 R/B 3.5 23:20:54 10° NW 23:25:28 26° WSW 23:26:08 25° WSW
Lacrosse 5 3.1 23:21:22 10° WNW 23:24:41 28° WSW 23:24:41 28° WSW
Cosmos 2322 3.6 23:22:58 10° NNW 23:28:42 89° WSW 23:29:31 67° SSE
Cosmos 1378 Rocket 3.6 23:24:34 10° NNW 23:28:49 74° WNW 23:28:49 74° WNW
NOSS 3-2 (C) 4.3 23:23:23 10° WSW 23:29:07 50° NW 23:35:46 10° NE
Cosmos 1833 4.1 23:28:44 66° SSW 23:29:34 86° ESE 23:35:17 10° NNE
COSMOS 2487 3.9 23:32:14 35° NNE 23:32:14 35° NNE 23:34:22 10° NNE
Cosmos 2084 Rocket 4.3 23:35:30 41° WNW 23:36:18 47° NW 23:40:31 10° NE
Cosmos 2219 Rocket 2.2 23:31:31 10° NNW 23:37:14 77° ENE 23:38:19 59° SE
EO 1 Del DPAF 4.4 23:36:39 10° N 23:39:56 36° WNW 23:39:56 36° WNW
Cosmos 1975 Rocket 3.5 23:38:02 10° N 23:42:25 53° ENE 23:42:25 53° ENE
Cosmos 2333 4.1 23:37:18 10° NNW 23:43:06 72° WSW 23:43:44 65° SSW
Cosmos 1503 Rocket 4.3 23:45:55 52° ESE 23:46:00 52° ESE 23:51:14 10° NNE
Cosmos 1242 Rocket 4.4 23:44:02 10° NNW 23:46:08 24° WNW 23:46:08 24° WNW
Cosmos 2322 Rocket 3.8 23:43:28 10° NW 23:47:39 21° W 23:48:01 21° WSW
YAOGAN 11 4.2 23:48:26 76° ENE 23:48:27 76° ENE 23:53:03 10° N
Helios 1A 3.1 23:49:48 71° NNW 23:49:48 71° NNW 23:53:37 10° NNW
ERBS 4.2 23:47:58 10° NW 23:50:53 28° NNE 23:51:02 28° NNE
SL-16 R/B 4.4 23:46:20 10° ESE 23:51:10 24° NE 23:55:59 10° N
Cosmos 1486 Rocket 3.8 23:52:11 74° SW 23:52:38 84° WNW 23:57:54 10° NNE
SL-16 R/B 4.4 23:48:26 10° N 23:52:44 21° NE 23:57:01 10° E
CZ-2D R/B 4.5 23:51:17 10° ENE 23:53:17 12° E 23:54:54 11° ESE
Cosmos 1544 4.1 23:54:38 45° NNE 23:54:38 45° NNE 23:57:16 10° N
Sich 1 Rocket 4.4 23:55:31 40° E 23:55:31 40° E 23:59:17 10° NNE
